"Time","Temp","Dewpoint","Humidity","Pressure","Direction","Speed","Gust","Precip","PrecipRate","Solar"
"00:04:59","60","53.5","79","29.96","338","0.1","1.2","0.00","0.00","0"
"00:09:56","59.9","53.4","79","29.96","338","0","0","0.00","0.00","0"
"00:14:57","59.7","53.3","79.5","29.96","338","0","0","0.00","0.00","0"
"00:19:57","59.4","53.2","80","29.96","338","0","0","0.00","0.00","0"
"00:24:56","59.3","53.1","80","29.96","338","0","0","0.00","0.00","0"
"00:29:59","59.1","53.1","80.5","29.96","338","0","0","0.00","0.00","0"
"00:34:58","58.9","53.1","81","29.96","338","0","0","0.00","0.00","0"
"00:39:57","58.8","53.2","81.7","29.96","338","0","0","0.00","0.00","0"
"00:44:56","58.6","53.1","82","29.96","338","0","0","0.00","0.00","0"
"00:49:59","58.5","53","82","29.96","338","0.1","1.2","0.00","0.00","0"
"00:54:58","58.4","52.9","82","29.96","338","0","1.2","0.00","0.00","0"
"00:59:57","58.4","52.9","82","29.96","338","0.5","1.2","0.00","0.00","0"
"01:04:58","58.4","52.9","82","29.96","338","0","0","0.00","0.00","0"
"01:09:57","58.2","52.7","82","29.96","338","0","0","0.00","0.00","0"
"01:14:56","58","52.8","82.7","29.96","338","0.2","2.4","0.00","0.00","0"
"01:19:59","57.9","52.8","83","29.96","338","0","0","0.00","0.00","0"
"01:24:58","57.7","52.6","83","29.96","338","0","0","0.00","0.00","0"
"01:29:56","57.6","52.7","83.6","29.96","338","0","0","0.00","0.00","0"
"01:34:56","57.5","52.7","84","29.96","338","0","0","0.00","0.00","0"
"01:39:59","57.4","52.6","84","29.96","338","0","0","0.00","0.00","0"
"01:44:58","57.3","52.5","84","29.96","338","0","0","0.00","0.00","0"
"01:49:56","57.2","52.7","85","29.96","338","0","0","0.00","0.00","0"
"01:54:59","57.1","52.6","85","29.96","338","0","0","0.00","0.00","0"
"01:59:58","57.1","52.6","85","29.96","338","0","0","0.00","0.00","0"
"02:04:55","57","52.5","85","29.96","338","0","0","0.00","0.00","0"
"02:09:59","56.9","52.7","85.6","29.96","338","0","0","0.00","0.00","0"
"02:14:59","56.9","52.8","86","29.96","338","0","0","0.00","0.00","0"
"02:19:58","56.8","52.7","86","29.96","338","0","0","0.00","0.00","0"
"02:24:57","56.8","52.7","86","29.96","338","0","0","0.00","0.00","0"
"02:29:56","56.8","52.8","86.3","29.96","338","0","0","0.00","0.00","0"
"02:34:59","56.7","52.6","86","29.96","338","0","0","0.00","0.00","0"
"02:39:58","56.6","52.5","86","29.96","338","0","0","0.00","0.00","0"
"02:44:58","56.4","52.4","86.3","29.96","338","0","0","0.00","0.00","0"
"02:49:58","56.3","52.4","86.9","29.96","338","0","0","0.00","0.00","0"
"02:54:57","56.1","52.3","87","29.96","338","0","0","0.00","0.00","0"
"02:59:59","56","52.2","87","29.96","338","0","0","0.00","0.00","0"
"03:04:59","55.8","52.1","87.3","29.96","338","0","0","0.00","0.00","0"
"03:09:57","55.8","52.3","88","29.96","338","0","0","0.00","0.00","0"
"03:14:57","55.6","52.1","88","29.96","338","0","0","0.00","0.00","0"
"03:19:59","55.5","52","88","29.96","338","0","0","0.00","0.00","0"
"03:24:58","55.4","51.9","88","29.96","338","0","0","0.00","0.00","0"
"03:29:57","55.2","51.7","88","29.96","338","0","0","0.00","0.00","0"
"03:34:56","55","51.5","88","29.96","338","0","0","0.00","0.00","0"
"03:39:59","54.9","51.7","89","29.96","338","0","0","0.00","0.00","0"
"03:44:58","54.8","51.6","89","29.96","338","0","0","0.00","0.00","0"
"03:49:57","54.7","51.6","89.4","29.96","338","0","0","0.00","0.00","0"
"03:54:56","54.7","51.8","90","29.96","338","0","0","0.00","0.00","0"
"03:59:59","54.7","51.8","90","29.96","338","0","0","0.00","0.00","0"
"04:04:57","54.6","51.7","90","29.96","338","0","0","0.00","0.00","0"
"04:09:59","54.5","51.6","90","29.96","338","0","0","0.00","0.00","0"
"04:14:57","54.3","51.4","90","29.96","338","0","0","0.00","0.00","0"
"04:19:58","54.2","51.3","90","29.96","338","0","0","0.00","0.00","0"
"04:24:56","54.1","51.2","90","29.96","338","0","0","0.00","0.00","0"
"04:29:58","54.1","51.3","90.4","29.96","338","0","0","0.00","0.00","0"
"04:34:56","54","51.4","91","29.96","338","0","0","0.00","0.00","0"
"04:39:59","53.9","51.3","91","29.96","338","0","0","0.00","0.00","0"
"04:44:58","53.9","51.3","91","29.96","338","0","0","0.00","0.00","0"
"04:49:57","53.8","51.2","91","29.96","338","0","0","0.00","0.00","0"
"04:54:56","53.9","51.3","91","29.96","338","0","0","0.00","0.00","0"
"04:59:59","53.9","51.5","91.7","29.96","338","0","0","0.00","0.00","0"
"05:04:56","53.8","51.5","92","29.96","338","0","0","0.00","0.00","0"
"05:09:58","53.7","51.4","92","29.96","338","0","0","0.00","0.00","0"
"05:14:59","53.7","51.4","92","29.96","338","0","0","0.00","0.00","0"
"05:19:57","53.6","51.3","92","29.96","338","0","0","0.00","0.00","0"
"05:24:56","53.6","51.3","92","29.96","338","0","0","0.00","0.00","0"
"05:29:59","53.5","51.2","92","29.96","338","0","0","0.00","0.00","0"
"05:34:58","53.5","51.2","92","29.96","338","0","0","0.00","0.00","0"
"05:39:57","53.5","51.2","92","29.96","338","0","0","0.00","0.00","0"
"05:44:56","53.5","51.2","92","29.97","338","0","0","0.00","0.00","0"
"05:49:59","53.4","51.1","92","29.97","338","0","0","0.00","0.00","0"
"05:54:58","53.4","51.1","92","29.97","338","0","0","0.00","0.00","0"
"05:59:56","53.4","51.1","92","29.97","338","0","0","0.00","0.00","0"
"06:04:58","53.3","51.2","92.6","29.97","338","0","0","0.00","0.00","0"
"06:09:57","53.1","51.1","92.8","29.97","338","0","0","0.00","0.00","0"
"06:14:57","53","51","93","29.97","338","0","0","0.00","0.00","0"
"06:19:59","53","50.9","92.7","29.97","338","0","0","0.00","0.00","5"
"06:24:58","52.9","50.9","93","29.97","338","0","0","0.00","0.00","7"
"06:29:57","52.9","50.9","93","29.97","338","0","0","0.00","0.00","9"
"06:34:56","53","51","93","29.97","338","0","0","0.00","0.00","11"
"06:39:59","53.1","51.1","93","29.97","338","0","0","0.00","0.00","12"
"06:44:58","53.1","51.1","93","29.97","338","0","0","0.00","0.00","14"
"06:49:56","53.2","51.2","93","29.97","327","0","1.2","0.00","0.00","18"
"06:54:58","53.4","51.4","93","29.97","327","0","0","0.00","0.00","21"
"06:59:56","53.5","51.5","93","29.98","327","0","0","0.00","0.00","74"
"07:04:57","53.8","51.8","93","29.98","327","0","0","0.00","0.00","84"
"07:09:56","54.3","52.5","93.8","29.98","327","0","0","0.00","0.00","95"
"07:14:59","55.1","53.4","94","29.98","327","0","0","0.00","0.00","98"
"07:19:57","55.6","53.9","94","29.98","327","0","0","0.00","0.00","70"
"07:24:59","55.9","54.2","94","29.98","327","0","0","0.00","0.00","67"
"07:29:57","56.2","54.5","93.9","29.99","327","0","0","0.00","0.00","53"
"07:34:56","56.5","54.5","93","29.99","327","0","0","0.00","0.00","58"
"07:39:58","57.1","55.1","92.9","29.99","327","0.4","2.4","0.00","0.00","120"
"07:44:57","57.8","55.4","91.6","29.99","328","0.4","2.3","0.00","0.00","120"
"07:49:59","58.6","55.6","89.7","29.99","328","0","0","0.00","0.00","151"
"07:54:57","59.3","56.1","89","29.99","328","0","0","0.00","0.00","216"
"07:59:56","59.9","56.2","87.8","30.00","328","0","0","0.00","0.00","229"
"08:04:57","60.6","56.6","86.5","30.00","328","0","0","0.00","0.00","148"
"08:09:56","61.3","56.9","85.4","30.00","328","0","0","0.00","0.00","167"
"08:14:59","62.2","57.4","84.4","30.00","328","0","1.2","0.00","0.00","269"
"08:19:57","63.1","57.6","82.4","30.00","328","0.5","2.4","0.00","0.00","276"
"08:24:59","63.9","57.7","80.1","30.00","328","1.3","3.6","0.00","0.00","246"
"08:29:57","64.7","57.5","77.6","30.00","328","0.3","2.3","0.00","0.00","76"
"08:34:59","65.3","57.3","75.5","30.00","328","0.6","3.6","0.00","0.00","69"
"08:39:58","66","58.2","76","30.00","328","0.3","1.2","0.00","0.00","132"
"08:44:56","66.8","59","76","30.00","328","0","1.2","0.00","0.00","144"
"08:49:58","67.7","58.8","73.4","30.00","328","0","1.2","0.00","0.00","178"
"08:54:57","68.5","59.4","72.6","30.00","328","0.3","1.2","0.00","0.00","334"
"08:59:59","69.5","59.8","71.2","30.00","328","0.2","1.2","0.00","0.00","390"
"09:04:56","70.4","59.5","68.6","30.00","328","0","1.2","0.00","0.00","388"
"09:09:58","71.1","59.8","67.5","30.00","328","0.2","1.2","0.00","0.00","239"
"09:14:57","72","60.1","66.4","30.00","328","0","0","0.00","0.00","158"
"09:19:59","72.6","59.5","63.5","30.00","328","0","0","0.00","0.00","213"
"09:24:58","73.4","60.1","63","30.00","322","0.4","2.4","0.00","0.00","149"
"09:29:56","74.3","60.9","63","30.01","321","1.1","2.4","0.00","0.00","418"
"09:34:58","75","60.5","60.8","30.01","323","0.7","2.4","0.00","0.00","418"
"09:39:56","75.4","60.4","59.6","30.01","293","1.4","3.6","0.00","0.00","100"
"09:44:59","75.8","60.5","59.1","30.01","244","0.9","2.4","0.00","0.00","504"
"09:49:57","76.4","60.1","57.1","30.00","240","0.5","2.4","0.00","0.00","450"
"09:54:59","77.1","60.1","55.8","30.00","234","0","0","0.00","0.00","538"
"09:59:57","77.9","60.3","54.7","30.00","208","0.7","3.6","0.00","0.00","538"
"10:04:58","78.5","58.6","50.5","30.00","204","1.4","3.6","0.00","0.00","420"
"10:09:59","79.3","59.6","51.1","30.00","215","1.5","4.8","0.00","0.00","564"
"10:14:56","79.7","58.7","48.6","30.00","264","2.1","7.2","0.00","0.00","571"
"10:19:56","80.4","60.1","50","30.00","336","1.2","8.4","0.00","0.00","582"
"10:24:56","80.7","59.2","48.1","30.00","220","4.2","10.8","0.00","0.00","473"
"10:29:59","80.8","58.4","46.4","30.00","327","2.9","10.8","0.00","0.00","587"
"10:34:59","80.9","58.3","46.2","30.00","342","3","8.4","0.00","0.00","587"
"10:39:59","81.1","60","48.7","30.00","281","2.3","6","0.00","0.00","610"
"10:44:59","81.7","59.9","47.8","30.00","238","3.1","10.8","0.00","0.00","638"
"10:49:58","81.7","59.6","47.2","30.00","265","3.3","8.4","0.00","0.00","638"
"10:54:58","81.4","58.8","46.3","30.00","341","5.8","16.1","0.00","0.00","654"
"10:59:57","81.5","59","46.5","30.00","323","3","16.1","0.00","0.00","671"
"11:04:56","81.4","59.2","46.9","30.00","309","3.6","8.1","0.00","0.00","680"
"11:09:56","81.7","59.8","47.5","30.00","297","3.9","8.4","0.00","0.00","684"
"11:14:56","81.5","59.6","47.5","30.00","341","4.6","12","0.00","0.00","691"
"11:19:59","81.9","59.8","47.3","29.99","302","3.6","8.1","0.00","0.00","700"
"11:24:59","82.2","60.8","48.5","29.99","285","3.2","8.4","0.00","0.00","708"
"11:29:59","82.4","60.5","47.7","29.99","310","3.6","8.4","0.00","0.00","714"
"11:34:58","82.9","61.3","48.3","29.99","280","2.6","7.2","0.00","0.00","719"
"11:39:58","83.8","61.9","47.9","29.99","235","2.8","7.2","0.00","0.00","726"
"11:44:58","83.8","61.7","47.5","29.99","244","2.4","7.2","0.00","0.00","731"
"11:49:57","84.2","61.4","46.5","29.99","286","3.1","8.4","0.00","0.00","738"
"11:54:57","84.4","61.8","46.7","29.99","269","2.1","7.2","0.00","0.00","744"
"11:59:59","84.1","60.8","45.5","29.99","353","3.4","8.4","0.00","0.00","754"
"12:04:58","84.1","61.3","46.4","29.99","241","2.6","14.4","0.00","0.00","777"
"12:09:58","83.9","60.9","45.9","29.99","343","5.3","15","0.00","0.00","770"
"12:14:59","84.2","61.7","46.9","29.99","305","4","10.4","0.00","0.00","742"
"12:19:58","84.4","61.2","45.7","29.98","51","2.6","9.6","0.00","0.00","722"
"12:24:58","84.6","61.7","46.3","29.98","213","3.7","8.4","0.00","0.00","772"
"12:29:57","85","62.6","47.2","29.98","291","2.6","6","0.00","0.00","770"
"12:34:57","85","61.5","45.4","29.98","225","4","8.4","0.00","0.00","779"
"12:39:57","84.8","61.2","45.2","29.98","198","4.8","10.8","0.00","0.00","758"
"12:44:57","84.8","61.6","45.8","29.98","245","3.7","9.6","0.00","0.00","788"
"12:49:57","85.2","61.3","44.7","29.97","216","3.1","7.2","0.00","0.00","793"
"12:54:56","85.6","61.7","44.9","29.97","230","4","10.8","0.00","0.00","795"
"12:59:56","85.1","59.8","42.6","29.97","227","4.9","15","0.00","0.00","791"
"13:04:59","84.9","59.7","42.7","29.97","327","3.2","10.8","0.00","0.00","793"
"13:09:59","85.2","61.4","44.9","29.97","298","3.2","8.4","0.00","0.00","793"
"13:14:59","85.9","62.3","45.4","29.97","215","3.7","15.6","0.00","0.00","789"
"13:19:58","86","60.9","43","29.97","202","7","16.1","0.00","0.00","798"
"13:24:58","85.7","61","43.6","29.97","226","4.7","9.6","0.00","0.00","784"
"13:29:56","85.9","61","43.5","29.97","234","4.5","16.1","0.00","0.00","773"
"13:34:59","86.1","61.3","43.6","29.96","228","4.6","12","0.00","0.00","780"
"13:39:58","85.9","61.4","43.8","29.96","238","6","13.2","0.00","0.00","795"
"13:44:57","86.1","62.1","44.8","29.96","241","4.1","12","0.00","0.00","780"
"13:49:55","86.4","62.2","44.5","29.96","231","4.7","15","0.00","0.00","780"
"13:54:58","86.7","62.1","43.8","29.96","217","3.6","8.4","0.00","0.00","773"
"13:59:57","86.5","60.6","42","29.96","244","3.8","10.8","0.00","0.00","772"
"14:04:57","86.4","60.7","42.2","29.95","276","4.1","16.1","0.00","0.00","772"
"14:09:58","86.6","61.4","43","29.95","254","3","9.6","0.00","0.00","765"
"14:14:58","87","62.1","43.5","29.95","225","4.8","10.8","0.00","0.00","761"
"14:19:56","86.8","62.4","44.3","29.95","298","1.7","8.4","0.00","0.00","756"
"14:24:59","86.9","60.6","41.3","29.95","196","3.1","8.1","0.00","0.00","751"
"14:29:58","87.4","62.1","43","29.95","216","4.1","9.6","0.00","0.00","745"
"14:34:57","87.5","61.1","41.3","29.95","247","2.8","8.4","0.00","0.00","733"
"14:39:56","87.4","61.4","41.9","29.95","255","4.1","9.6","0.00","0.00","731"
"14:44:55","87.4","60.8","41.2","29.95","254","2.5","9.2","0.00","0.00","735"
"14:49:59","87.8","61.4","41.4","29.94","316","4.9","12","0.00","0.00","714"
"14:54:58","87.5","60.5","40.5","29.94","289","2.1","8.4","0.00","0.00","710"
"14:59:57","88","61.7","41.5","29.94","232","2.5","9.6","0.00","0.00","703"
"15:04:58","88.3","62.3","42.2","29.93","267","2.9","8.4","0.00","0.00","684"
"15:09:59","88.1","60.4","39.6","29.93","352","2.1","8.4","0.00","0.00","684"
"15:14:56","88.3","61.9","41.5","29.93","234","3.1","7.2","0.00","0.00","684"
"15:19:59","88.8","61.6","40.3","29.92","301","3.1","10.8","0.00","0.00","677"
"15:24:58","89","60.6","38.7","29.92","266","3.5","10.8","0.00","0.00","677"
"15:29:57","88.8","61","39.6","29.92","341","3.7","10.8","0.00","0.00","666"
"15:34:59","89.2","60.2","37.9","29.92","331","3.7","8.4","0.00","0.00","647"
"15:39:59","89.1","60.2","38","29.92","281","2.4","4.8","0.00","0.00","633"
"15:44:58","88.8","60.9","39.3","29.92","242","3.4","8.4","0.00","0.00","624"
"15:49:57","88.3","60.7","39.7","29.91","205","3.3","6","0.00","0.00","615"
"15:54:56","88.2","60.5","39.6","29.91","202","3.5","7.2","0.00","0.00","606"
"15:59:59","88.2","61.4","40.8","29.91","191","2.4","4.8","0.00","0.00","589"
"16:04:56","88.5","60.5","39.2","29.91","192","2.3","7.2","0.00","0.00","578"
"16:09:57","88.9","60.9","39.3","29.91","213","4","7.2","0.00","0.00","575"
"16:14:56","89.5","61.8","39.7","29.91","214","3.3","8.4","0.00","0.00","564"
"16:19:59","89.5","60.5","37.9","29.90","227","3.1","6","0.00","0.00","545"
"16:24:59","89.5","59.7","36.9","29.90","181","2.8","4.8","0.00","0.00","534"
"16:29:58","89.6","60","37.1","29.90","241","2.8","6","0.00","0.00","529"
"16:34:57","89.4","59.7","37","29.90","173","2.2","7.2","0.00","0.00","504"
"16:39:56","89.6","61.2","38.8","29.90","206","3.4","8.4","0.00","0.00","468"
"16:44:56","89.7","61.5","39.1","29.90","148","2.8","6","0.00","0.00","429"
"16:49:58","89.4","60.9","38.7","29.90","133","1.6","4.8","0.00","0.00","396"
"16:54:58","89.3","61.6","39.8","29.90","207","3.1","7.2","0.00","0.00","373"
"16:59:57","89.6","60.5","37.9","29.90","203","2.6","13.2","0.00","0.00","359"
"17:04:58","89.7","61.1","38.5","29.90","201","4.2","7.2","0.00","0.00","353"
"17:09:59","89.8","60.4","37.5","29.90","180","2.1","4.8","0.00","0.00","341"
"17:14:58","89.9","60.6","37.7","29.90","182","2.9","6","0.00","0.00","323"
"17:19:57","89.7","61","38.3","29.89","176","2.8","7.2","0.00","0.00","308"
"17:24:56","89.8","60.8","38.1","29.89","178","3.2","7.2","0.00","0.00","304"
"17:29:59","89.7","59.8","36.9","29.90","196","3.7","6.9","0.00","0.00","302"
"17:34:58","89.7","60.3","37.5","29.90","201","1.3","3.6","0.00","0.00","304"
"17:39:58","89.9","59.5","36.2","29.90","192","3.2","6","0.00","0.00","302"
"17:44:57","89.8","60.4","37.5","29.90","176","3.3","4.8","0.00","0.00","295"
"17:49:56","89.4","59.5","36.8","29.90","171","1.2","4.6","0.00","0.00","197"
"17:54:58","89.3","60","37.5","29.90","172","0.6","2.4","0.00","0.00","146"
"17:59:57","89.3","59.6","37","29.90","164","2.2","6","0.00","0.00","227"
"18:04:57","89.1","59.7","37.3","29.90","145","2.1","4.8","0.00","0.00","207"
"18:09:58","88.8","59.9","38","29.90","154","1.9","4.8","0.00","0.00","185"
"18:14:58","88.6","60.3","38.8","29.90","185","3","6","0.00","0.00","149"
"18:19:57","88.4","60.2","38.8","29.90","196","3","6","0.00","0.00","72"
"18:24:59","88.1","60.1","39.1","29.90","195","3.2","7.2","0.00","0.00","144"
"18:29:58","87.7","59.1","38.2","29.90","190","2.7","6.9","0.00","0.00","120"
"18:34:57","87.4","60.1","40.1","29.90","174","2","6","0.00","0.00","62"
"18:39:56","87.1","59.8","40","29.90","191","3.4","6","0.00","0.00","77"
"18:44:59","86.6","59.7","40.5","29.90","174","3.4","6","0.00","0.00","40"
"18:49:57","86.3","58.7","39.5","29.90","170","2.2","4.8","0.00","0.00","37"
"18:54:57","86","59.2","40.4","29.90","172","2.5","6","0.00","0.00","33"
"18:59:59","85.8","59.7","41.6","29.90","174","2.4","4.8","0.00","0.00","32"
"19:04:56","85.5","59.3","41.3","29.90","177","2.6","4.8","0.00","0.00","32"
"19:09:57","85.3","59.4","41.8","29.90","180","2.4","4.8","0.00","0.00","26"
"19:14:56","85","59.9","42.9","29.90","180","1.9","3.5","0.00","0.00","25"
"19:19:59","84.7","59.6","42.8","29.90","180","1.5","3.6","0.00","0.00","23"
"19:24:58","84.5","59.7","43.3","29.90","180","2.2","3.6","0.00","0.00","21"
"19:29:56","84.2","59.9","43.9","29.91","180","0.6","2.4","0.00","0.00","19"
"19:34:59","83.9","59.7","44","29.91","180","1.2","2.4","0.00","0.00","16"
"19:39:55","83.5","60","45.2","29.91","180","0.8","2.4","0.00","0.00","14"
"19:44:59","82.9","60.1","46.1","29.91","180","0.7","2.4","0.00","0.00","11"
"19:49:59","82.3","60.5","47.8","29.91","180","0.4","1.2","0.00","0.00","9"
"19:54:59","81.7","60.8","49.3","29.91","180","0.2","1.2","0.00","0.00","7"
"19:59:58","81","61","50.7","29.91","180","0","0","0.00","0.00","5"
"20:04:59","80.3","61","51.7","29.91","180","0","1.2","0.00","0.00","0"
"20:09:56","79.7","61.5","53.9","29.91","180","0","0","0.00","0.00","0"
"20:14:56","79","61","54.1","29.91","180","0","0","0.00","0.00","0"
"20:19:57","78.4","60.9","54.9","29.91","180","0","0","0.00","0.00","0"
"20:24:59","77.8","61.1","56.5","29.91","180","0","0","0.00","0.00","0"
"20:29:57","77.3","61.3","57.8","29.92","180","0","0","0.00","0.00","0"
"20:34:58","76.8","61.4","59","29.92","180","0","0","0.00","0.00","0"
"20:39:56","76.3","61.3","59.9","29.92","180","0","1.2","0.00","0.00","0"
"20:44:58","75.7","61.1","60.4","29.92","180","0.2","1.2","0.00","0.00","0"
"20:49:59","75.2","60.1","59.4","29.92","180","0","0","0.00","0.00","0"
"20:54:57","74.8","60.4","61","29.92","180","0","0","0.00","0.00","0"
"20:59:57","74.4","60.6","62.2","29.92","180","0","0","0.00","0.00","0"
"21:04:59","74.1","60.8","63.2","29.92","180","0","0","0.00","0.00","0"
"21:09:58","73.8","60.9","64","29.92","180","0","0","0.00","0.00","0"
"21:14:56","73.4","61","65.1","29.92","180","0","0","0.00","0.00","0"
"21:19:57","73.1","61","65.9","29.92","180","0","0","0.00","0.00","0"
"21:24:59","72.8","60.4","65.3","29.92","180","0","0","0.00","0.00","0"
"21:29:56","72.5","60.8","66.9","29.93","180","0","0","0.00","0.00","0"
"21:34:59","72.2","60.8","67.5","29.93","180","0","0","0.00","0.00","0"
"21:39:57","71.9","60.8","68","29.93","180","0","0","0.00","0.00","0"
"21:44:56","71.6","60.5","67.9","29.94","180","0","0","0.00","0.00","0"
"21:49:58","71.4","60.4","68.1","29.94","180","0","0","0.00","0.00","0"
"21:54:56","71.3","60.6","69","29.94","180","0","1.2","0.00","0.00","0"
"21:59:58","71.2","60.8","69.8","29.94","180","0.2","1.2","0.00","0.00","0"
"22:04:56","71.1","60.8","70","29.94","180","0.5","1.2","0.00","0.00","0"
"22:09:59","71","60.7","70","29.94","180","0","1.2","0.00","0.00","0"
"22:14:58","70.9","60.6","70","29.94","180","0","0","0.00","0.00","0"
"22:19:59","70.8","60.5","70","29.94","180","0","0","0.00","0.00","0"
"22:24:56","70.5","60.5","70.8","29.94","180","0","0","0.00","0.00","0"
"22:29:57","70.2","60.5","71.3","29.95","180","0","0","0.00","0.00","0"
"22:34:59","69.9","60.6","72.3","29.95","180","0","0","0.00","0.00","0"
"22:39:56","69.5","60.5","73","29.95","180","0","0","0.00","0.00","0"
"22:44:58","69.1","60.1","73.2","29.95","180","0","0","0.00","0.00","0"
"22:49:59","68.7","59.7","73","29.95","180","0","0","0.00","0.00","0"
"22:54:57","68.4","59.8","74","29.95","180","0","0","0.00","0.00","0"
"22:59:58","68.1","59.8","74.8","29.95","180","0","0","0.00","0.00","0"
"23:04:57","67.9","60","75.8","29.95","180","0","0","0.00","0.00","0"
"23:09:56","67.7","59.9","76","29.95","180","0","0","0.00","0.00","0"
"23:14:58","67.4","59.7","76.2","29.95","180","0","1.2","0.00","0.00","0"
"23:19:59","67.2","59.7","77","29.94","180","0","1.2","0.00","0.00","0"
"23:24:56","67.1","59.9","77.9","29.94","180","0","0","0.00","0.00","0"
"23:29:57","67","60","78.1","29.94","180","0.2","2.4","0.00","0.00","0"
"23:34:59","67.1","60","78","29.94","180","1.2","2.4","0.00","0.00","0"
"23:39:57","67.1","60","78","29.94","180","0","1.2","0.00","0.00","0"
"23:44:59","66.9","60","78.3","29.94","180","0","0","0.00","0.00","0"
"23:49:59","66.8","60.1","79","29.94","180","0","0","0.00","0.00","0"
"23:54:57","66.5","59.9","79.4","29.94","180","0","0","0.00","0.00","0"
